Salt Lake City, UT

2:28 PM MST on November 23, 2017 (GMT -0700)
Salt Lake City International

Weather History for KSLC - December, 2013

Change the Weather History Date:

Sunday, December 22, 2013

  Actual Average Record
Temperature  
Mean Temperature 32 °F 29 °F  
Max Temperature 35 °F 37 °F 57 °F (1964)
Min Temperature 29 °F 22 °F -10 °F (1990)
Degree Days  
Heating Degree Days 33 36  
Month to date heating degree days 901 754  
Since 1 July heating degree days 1948 1972  
Cooling Degree Days 0 0  
Month to date cooling degree days 0 0  
Year to date cooling degree days 1768 1160  
Moisture  
Dew Point 28 °F    
Average Humidity 77    
Maximum Humidity 85    
Minimum Humidity 69    
Precipitation  
Precipitation 0.03 in 0.04 in 0.79 in (1924)
Month to date precipitation 1.64 1.01  
Year to date precipitation 11.61 15.70  
Snow  
Snow 0.30 in 0.40 in 4.70 in (1987)
Month to date snowfall 18.1 9.1  
Since 1 July snowfall 21.6 18.1  
Snow Depth 7.00 in    
Sea Level Pressure  
Sea Level Pressure 30.27 in    
Wind  
Wind Speed 8 mph (SE)    
Max Wind Speed 14 mph    
Max Gust Speed 17 mph    
Visibility 6 miles    
Events Snow    
T = Trace of Precipitation, MM = Missing Value Source: NWS Daily Summary

Daily Weather History Graph

Daily Weather History Graph

Search for Another Location

Airport or City:

Trip Planner

Search our weather history database for the weather conditions in past years. The results will help you decide how hot, cold, wet, or windy it might be!

Date:

Astronomy

Dec. 22, 2013 Rise Set
Actual Time 7:49 AM MST 5:04 PM MST
Civil Twilight 7:18 AM MST 5:35 PM MST
Nautical Twilight 6:43 AM MST 6:09 PM MST
Astronomical Twilight 6:10 AM MST 6:43 PM MST
Moon 10:22 PM MST (12/22) 10:45 AM MST (12/22)
Length of Visible Light 10h 16m
Length of Day
9h 14m
Waning Gibbous, 76% of the Moon is Illuminated
Dec 22
Waning Gibbous
Dec 25
Last Quarter
Jan 1
New
Jan 7
First Quarter
Jan 15
Full

Hourly Weather History & Observations

Time (MST) Temp. Windchill Dew Point Humidity Pressure Visibility Wind Dir Wind Speed Gust Speed Precip Events Conditions
12:53 AM 28.9 °F 21.9 °F 25.0 °F 85% 30.15 in 4.0 mi SE 6.9 mph - N/A   Overcast
1:53 AM 30.0 °F 21.7 °F 25.0 °F 82% 30.17 in 5.0 mi South 9.2 mph - N/A   Haze
2:53 AM 30.0 °F 23.2 °F 25.0 °F 82% 30.18 in 6.0 mi SE 6.9 mph - N/A   Haze
3:53 AM 30.0 °F 20.0 °F 24.1 °F 79% 30.17 in 8.0 mi SE 12.7 mph - N/A   Overcast
4:53 AM 30.9 °F 22.8 °F 24.1 °F 76% 30.17 in 10.0 mi SE 9.2 mph - N/A   Overcast
5:53 AM 30.9 °F 21.7 °F 24.1 °F 76% 30.18 in 10.0 mi ESE 11.5 mph - N/A   Overcast
6:53 AM 32.0 °F 24.8 °F 24.1 °F 73% 30.19 in 10.0 mi SE 8.1 mph - N/A   Overcast
7:53 AM 33.1 °F 25.5 °F 24.1 °F 70% 30.21 in 10.0 mi SE 9.2 mph - N/A   Overcast
8:53 AM 33.1 °F 24.9 °F 25.0 °F 72% 30.22 in 10.0 mi SE 10.4 mph - 0.00 in Snow Light Snow
9:53 AM 34.0 °F 28.0 °F 25.0 °F 70% 30.24 in 10.0 mi SE 6.9 mph - 0.00 in Snow Light Snow
10:53 AM 33.1 °F 27.7 °F 26.1 °F 75% 30.26 in 3.0 mi SE 5.8 mph - 0.01 in Snow Light Snow
11:53 AM 33.1 °F 26.9 °F 27.0 °F 78% 30.27 in 3.0 mi SE 6.9 mph - 0.00 in Snow Light Snow
12:35 PM 34.0 °F 29.8 °F 28.0 °F 79% 30.22 in 2.5 mi SE 4.6 mph - 0.01 in Snow Light Snow
12:53 PM 34.0 °F 28.8 °F 28.0 °F 79% 30.27 in 4.0 mi SE 5.8 mph - 0.01 in Snow Light Snow
1:36 PM 34.0 °F 26.6 °F 28.0 °F 79% 30.22 in 2.5 mi SSE 9.2 mph - 0.01 in Snow Light Snow
1:44 PM 34.0 °F 28.0 °F 28.0 °F 79% 30.22 in 4.0 mi SE 6.9 mph - 0.01 in Snow Light Snow
1:53 PM 34.0 °F 27.2 °F 28.0 °F 79% 30.26 in 5.0 mi SE 8.1 mph - 0.01 in   Haze
2:53 PM 35.1 °F 27.9 °F 28.0 °F 76% 30.26 in 6.0 mi SE 9.2 mph - 0.00 in Snow Light Snow
3:53 PM 35.1 °F 27.4 °F 28.0 °F 76% 30.27 in 6.0 mi SE 10.4 mph - 0.00 in Snow Light Snow
4:53 PM 35.1 °F 27.9 °F 28.0 °F 76% 30.28 in 7.0 mi ESE 9.2 mph - 0.00 in   Overcast
5:53 PM 35.1 °F 29.3 °F 28.0 °F 76% 30.29 in 10.0 mi SE 6.9 mph - N/A   Overcast
6:53 PM 35.1 °F 30.1 °F 28.0 °F 76% 30.31 in 10.0 mi SE 5.8 mph - N/A   Overcast
7:53 PM 35.1 °F 27.4 °F 28.9 °F 78% 30.32 in 7.0 mi SE 10.4 mph - N/A   Overcast
8:53 PM 35.1 °F 28.6 °F 30.0 °F 82% 30.35 in 2.0 mi SSE 8.1 mph - 0.00 in Snow Light Snow
9:04 PM 35.1 °F 27.9 °F 30.0 °F 82% 30.32 in 2.0 mi SSE 9.2 mph - 0.01 in Snow Light Snow
9:12 PM 35.1 °F 28.6 °F 30.9 °F 85% 30.32 in 1.8 mi SE 8.1 mph - 0.01 in Snow Light Snow
9:17 PM 35.1 °F 28.6 °F 30.9 °F 85% 30.32 in 2.0 mi SE 8.1 mph - 0.01 in Snow Light Snow
9:42 PM 35.1 °F 28.6 °F 30.9 °F 85% 30.32 in 1.8 mi SE 8.1 mph - 0.02 in Snow Light Snow
9:50 PM 35.6 °F 29.9 °F 30.2 °F 81% 30.33 in 2.0 mi SE 6.9 mph - 0.02 in Snow Light Snow
9:53 PM 35.1 °F 29.3 °F 30.9 °F 85% 30.36 in 1.8 mi SE 6.9 mph - 0.02 in Snow Light Snow
10:03 PM 35.1 °F 29.3 °F 30.9 °F 85% 30.33 in 2.5 mi SE 6.9 mph - 0.00 in Snow Light Snow
10:11 PM 35.1 °F 28.6 °F 30.9 °F 85% 30.34 in 1.8 mi SE 8.1 mph - 0.00 in Snow Light Snow
10:31 PM 35.1 °F 29.3 °F 30.9 °F 85% 30.35 in 3.0 mi SE 6.9 mph - 0.01 in Snow Light Snow
10:53 PM 35.1 °F 28.6 °F 30.9 °F 85% 30.38 in 3.0 mi SSE 8.1 mph - 0.01 in   Overcast
11:53 PM 35.1 °F 29.3 °F 30.0 °F 82% 30.39 in 10.0 mi SSE 6.9 mph - 0.00 in   Overcast